Notices

What's New in latest Release from April 7th, 2021:

- Updated Glossary, including Speed of Maximum Gust, and Total Hourly Precipitation

- Updated national and regional climate services offices contacts and prices information

- Addition of station inventory lists for 1981-2010, 1971-2000, and 1961-1990 Normals.

If you haven't already, please take our survey and provide feedback about our website: https://eccc.sondage-survey.ca/f/LanguageSelection.aspx?s=442ca660-fcf1-47c0-95a9-59707d6fd709

Hourly Data Report for April 13, 2021

ALGONQUIN PARK EAST GATE
ONTARIO
Current Station Operator: ECCC - MSC

45°32'00.000" N
78°16'00.000" W
397.00 m
6080192
71581
TNK

Download Data

Hourly Data (April 2021)
Hourly Data Report for April 13, 2021
TIME
LST
Temp Definition
°C
Dew Point Definition
°C
Rel Hum Definition
%
Precip. Amount Definition
mm

Wind Dir Definition
10's deg

Wind Spd Definition
km/h
Visibility Definition
km
Stn Press Definition
kPa
Hmdx Definition


Wind Chill Definition


Weather Definition


00:00 5.7 4.6 93 0.0   0   96.79     LegendNANA
01:00 5.5 4.6 93 0.0   0   96.81     LegendNANA
02:00 5.7 4.7 93 0.0   0   96.81     LegendNANA
03:00 5.8 4.8 93 0.0   0   96.84     LegendNANA
04:00 5.7 4.7 93 0.0   0   96.87     LegendNANA
05:00 5.7 4.7 94 0.0 0 1   96.89     LegendNANA
06:00 5.5 4.5 93 0.0   0   96.91     LegendNANA
07:00 6.9 5.9 93 0.0 13 2   96.98     LegendNANA
08:00 7.8 6.5 91 0.0 23 2   97.08     LegendNANA
09:00 8.9 6.4 85 0.0 13 5   97.06     LegendNANA
10:00 9.4 6.1 80 0.0 12 6   97.07     LegendNANA
11:00 10.5 5.9 73 0.0 13 7   97.04     LegendNANA
12:00 12.1 5.6 65 0.0 16 6   97.01     LegendNANA
13:00 12.5 4.5 58 0.0 14 7   97.01     LegendNANA
14:00 12.2 5.5 63 0.0 18 6   96.99     LegendNANA
15:00 12.2 4.2 58 0.0 18 5   96.95     LegendNANA
16:00 12.1 4.3 59 0.0 18 2   96.95     LegendNANA
17:00 10.1 6.9 81 0.0 24 4   97.01     LegendNANA
18:00 9.6 7.9 89 0.6   0   97.02     LegendNANA
19:00 9.2 7.7 90 0.0   0   97.03     LegendNANA
20:00 6.9 5.5 91 0.0   0   97.06     LegendNANA
21:00 5.0 3.9 93 0.0   0   97.07     LegendNANA
22:00 4.5 3.7 94 0.0 0 1   97.08     LegendNANA
23:00 4.1 3.4 95 0.0   0   97.07     LegendNANA

Notes on Data Quality.

Legend

  • E = Estimated
  • M = Missing
  • NA = Not Available*
  • [empty] = Indicates an unobserved value
Date modified: